RH
14 14 14 14 16 17 18 17 17 17 17 18 20 24 25 25 28 28 34 36 36 34 32 30 28 27 26 25 25 24 21 20 21 18 16 17 14 14 12 14 17 16 14 9 7
17 15 16 17 19 20 19 20 20 20 19 19 22 24 25 27 29 30 33 34 34 33 32 32 32 31 29 31 30 32 30 31 27 23 20 22 17 17 19 17 19 18 13 12 9
21 22 21 20 20 21 21 22 24 24 24 24 24 27 29 29 28 30 28 29 29 30 30 30 30 30 29 29 28 29 29 30 30 26 25 27 26 21 20 21 21 20 20 12 9
25 23 24 23 23 24 24 24 25 25 24 22 26 28 27 27 27 28 30 29 31 32 33 33 30 27 22 18 15 16 20 23 27 31 28 28 27 26 23 21 23 22 21 21 13
32 30 30 29 28 26 26 25 25 23 22 22 24 24 24 26 27 31 33 35 33 28 19 15 11 10 8 7 6 5 5 6 8 13 20 24 26 28 27 26 26 23 20 18 16
35 32 30 31 34 28 26 24 23 20 17 20 21 22 22 26 26 28 28 23 16 14 12 11 6 5 5 5 4 5 5 5 5 5 5 5 6 8 12 16 22 25 23 21 18
35 35 35 33 30 28 26 25 23 18 16 18 21 21 25 27 26 20 16 16 13 10 8 7 6 5 4 4 5 6 7 7 7 9 10 7 5 9 11 10 8 11 15 19 21
32 33 35 34 32 32 29 26 22 19 19 21 22 23 24 20 18 17 12 9 8 8 8 6 5 4 4 5 9 9 10 11 14 14 13 12 9 12 12 12 10 9 9 12 12
33 33 34 38 34 31 30 26 24 24 22 21 17 19 15 14 13 11 9 9 10 10 7 5 4 4 5 7 10 15 14 15 14 14 12 11 9 10 9 8 8 9 9 9 8
35 32 35 39 40 36 30 27 28 26 23 18 18 13 16 14 13 11 11 11 12 8 6 5 4 6 9 11 13 16 17 14 14 14 12 12 11 12 27 23 20 14 13 10 6
26 30 34 46 46 42 32 31 28 30 20 15 14 16 15 14 13 14 14 13 9 6 6 6 8 10 12 16 20 15 11 12 33 39 29 46 33 32 36 34 24 19 16 19 20
47 35 34 48 51 44 36 29 29 24 17 15 17 20 17 16 16 16 15 12 8 6 8 10 10 11 13 19 13 14 19 36 43 63 48 44 36 33 37 56 44 47 44 36 25
58 52 48 54 50 44 36 34 30 21 20 19 20 18 19 18 17 15 11 8 8 8 10 11 12 15 20 15 12 31 40 47 58 41 60 61 53 51 38 42 52 50 51 57 50
56 59 56 58 54 45 42 38 30 19 19 21 21 21 19 19 17 13 10 10 11 11 11 10 11 19 16 13 16 32 65 59 70 40 54 88 81 54 66 51 65 72 85 78 67
56 56 63 63 53 46 42 37 29 20 20 24 24 22 21 20 18 14 11 13 14 13 12 11 17 19 13 16 34 32 61 59 62 71 81 94 84 84 75 95 100 90 81 80 54
62 60 66 63 49 45 41 39 27 27 28 29 26 23 23 20 17 15 16 16 16 15 12 10 20 15 14 34 41 36 50 66 84 86 100 94 95 82 91 97 100 71 79 71 60
70 73 75 56 46 42 43 36 28 31 30 29 26 25 23 19 17 16 15 17 18 18 10 14 19 15 16 40 69 58 63 51 58 80 100 100 98 98 100 100 100 100 100 100 99
78 80 73 58 46 40 41 32 29 30 34 33 29 26 22 19 17 18 20 22 24 20 11 15 19 16 31 35 43 52 59 80 76 76 100 100 100 99 100 100 98 100 100 100 100
84 85 83 63 48 44 37 33 32 35 36 34 30 26 21 18 17 19 20 24 26 16 16 23 21 18 44 41 41 66 74 83 77 85 83 100 100 100 100 100 100 100 100 100 100
86 88 89 71 52 45 39 38 40 38 37 35 30 26 19 16 18 20 22 25 28 15 16 28 20 18 39 53 56 58 64 77 86 75 82 100 100 100 98 98 98 100 100 100 100
86 94 93 78 53 47 42 46 46 42 38 35 31 26 18 14 16 19 21 25 33 16 19 32 23 20 28 40 56 63 72 69 94 80 100 100 98 99 90 94 82 88 100 100 100
81 88 93 89 57 53 55 51 45 43 39 35 30 23 17 14 14 19 22 22 30 21 23 34 25 18 23 43 56 54 56 66 75 98 90 100 100 90 89 96 92 79 94 100 100
85 97 91 96 86 77 78 53 46 45 40 35 29 22 16 12 13 18 22 23 26 30 20 38 32 20 21 24 50 56 55 56 68 88 94 100 100 100 100 81 79 69 72 89 98
89 98 93 97 100 99 97 77 56 48 42 34 29 21 15 11 13 18 22 24 21 39 20 43 38 21 21 31 37 55 60 67 68 71 93 99 100 100 100 99 98 86 68 69 100
100 100 100 96 100 99 99 94 89 62 41 35 27 20 16 10 11 16 21 24 20 34 37 28 46 22 20 29 30 43 67 70 82 71 63 85 94 92 80 72 67 64 83 87 88
98 100 97 86 91 100 100 99 98 65 46 32 25 20 14 10 11 16 20 18 19 34 50 23 48 34 19 30 38 32 50 50 77 84 65 68 62 81 84 71 59 51 50 69 80
100 100 96 90 94 100 99 100 99 93 57 37 24 19 13 11 13 16 16 15 16 42 54 20 36 46 22 22 42 39 38 43 38 64 66 68 68 48 58 75 73 63 56 48 39
Wind_Speed
17 18 18 18 20 22 23 25 26 27 29 29 30 31 31 31 28 28 27 29 29 29 30 31 32 33 34 35 36 38 40 40 42 45 46 49 46 47 43 41 42 44 44 42 40
17 19 20 18 20 23 25 28 30 30 31 30 31 32 32 32 29 28 27 27 28 30 32 33 35 36 37 38 40 43 45 46 50 50 51 53 54 52 50 48 48 51 52 51 46
18 20 22 21 22 25 27 30 32 33 33 32 30 30 32 32 30 29 28 29 29 29 31 33 35 37 40 42 43 44 46 49 51 54 54 54 57 60 58 56 55 56 56 56 54
19 20 22 24 25 27 30 32 35 37 35 32 30 29 30 31 31 31 31 31 31 35 37 37 40 42 42 42 43 43 46 49 51 54 57 58 59 60 63 60 59 60 59 59 59
22 22 24 26 29 31 32 34 38 38 35 33 31 31 31 31 32 33 33 35 36 38 38 36 35 36 38 40 42 45 46 49 51 53 55 57 59 61 61 61 63 63 63 64 64
25 26 26 28 31 32 33 36 39 37 35 32 32 32 33 33 35 35 36 37 36 33 34 34 39 42 44 48 49 51 51 53 54 55 57 59 56 60 57 64 66 66 66 66 67
27 29 30 31 32 33 35 39 39 35 33 32 35 36 35 36 36 34 34 30 34 35 39 44 46 48 52 53 53 52 50 50 53 55 57 60 55 57 61 65 66 66 66 68 69
29 31 33 32 34 36 36 39 37 34 35 35 37 36 35 32 31 31 34 35 39 41 45 48 51 56 56 55 53 53 51 50 53 56 57 58 47 55 60 63 65 66 68 69 69
30 33 34 36 37 34 38 38 35 36 38 37 36 33 31 31 31 33 35 38 41 45 48 51 53 52 52 50 49 51 50 51 51 51 54 54 53 46 48 53 57 59 61 66 70
33 36 36 39 38 37 38 37 36 38 37 34 31 31 30 33 34 36 41 44 47 47 48 52 52 51 50 50 50 49 49 46 41 42 41 35 31 26 24 31 32 33 38 46 59
35 35 37 41 38 39 38 37 36 36 33 32 31 30 33 34 35 40 43 44 47 49 51 50 51 52 50 49 49 45 43 37 27 25 20 17 16 19 25 29 31 35 37 38 46
38 37 38 40 38 38 39 38 39 38 33 30 31 30 33 35 39 41 42 44 46 49 50 51 52 52 50 49 44 34 32 21 17 18 19 21 20 25 27 28 31 38 42 46 49
39 38 39 40 37 38 38 39 39 32 27 31 27 32 34 37 39 41 43 45 48 49 49 51 53 51 49 46 38 19 23 18 16 19 21 23 24 22 27 34 34 34 36 42 46
40 38 40 40 38 38 38 39 36 27 27 25 30 34 38 39 40 42 44 45 46 47 49 51 51 49 46 39 30 15 17 15 17 19 20 22 20 25 24 28 33 32 30 28 30
43 40 40 36 36 38 39 38 30 26 28 31 34 37 36 37 40 41 42 43 46 48 51 51 50 47 39 32 22 18 14 15 19 17 23 18 20 20 22 32 31 20 16 16 11
46 42 35 34 36 37 37 32 26 26 30 32 36 36 37 38 38 40 40 43 44 49 50 49 47 42 32 22 19 17 13 14 17 15 16 21 22 21 25 28 21 11 9 5 11
42 39 33 36 37 36 32 26 26 27 31 34 35 34 35 35 37 38 39 42 45 45 46 48 46 39 26 13 19 17 17 15 13 11 14 24 21 21 22 20 21 16 9 9 9
37 37 37 37 37 34 27 25 26 29 31 33 33 32 31 34 35 38 40 43 47 49 47 46 42 36 23 17 18 15 15 20 21 13 13 18 19 18 19 25 27 26 27 30 7
39 38 38 38 35 28 26 26 28 30 32 33 31 31 31 33 34 38 41 44 46 47 46 44 39 33 23 20 17 11 13 15 15 11 13 17 12 14 17 16 22 22 29 26 26
38 38 38 36 31 27 27 28 30 32 33 32 30 30 30 32 33 36 41 45 45 45 46 41 33 27 20 20 19 17 11 12 17 14 10 14 13 12 16 19 17 24 26 28 25
36 37 36 31 30 28 29 30 31 33 32 29 28 29 29 31 32 33 39 44 44 45 44 41 33 28 22 19 16 12 12 14 15 13 14 14 17 14 15 15 16 20 18 20 21
36 38 35 31 29 30 31 34 34 33 29 28 27 27 29 30 31 32 36 42 44 43 42 39 32 26 25 18 17 16 15 12 10 10 8 11 11 14 15 13 14 16 19 18 18
37 38 38 35 31 31 32 36 35 30 28 27 26 27 28 29 29 31 34 38 43 42 41 40 34 27 24 16 13 13 16 15 11 9 10 7 8 10 10 11 11 12 14 13 11
41 41 35 35 35 35 33 34 34 30 28 28 27 26 27 28 28 30 33 35 41 41 40 38 33 27 25 21 13 14 14 15 10 8 7 8 9 9 11 11 11 10 9 6 9
47 40 38 37 36 37 35 32 33 31 29 28 26 26 26 27 27 29 32 34 38 42 39 37 32 25 24 19 16 13 12 13 11 9 8 7 8 6 9 9 9 9 6 3 4
45 42 42 40 36 35 31 32 32 30 28 28 27 26 26 26 26 26 29 33 36 40 37 35 32 27 21 19 18 14 11 11 10 8 9 7 8 7 5 6 5 5 7 4 2
42 45 47 41 37 37 33 33 32 30 26 27 26 26 27 26 25 25 28 31 34 38 34 33 32 28 23 19 17 14 11 10 10 9 9 10 10 10 9 7 9 5 4 5 4
Wind_Direction
14 8 8 9 6 4 359 354 350 345 340 335 330 326 323 320 315 309 304 299 297 293 292 290 287 284 282 279 276 273 270 268 267 264 265 266 263 265 262 260 259 258 256 254 253
3 1 359 356 359 359 356 352 349 344 339 333 327 325 325 323 319 313 307 301 296 294 292 291 290 288 286 282 279 277 274 272 268 267 267 267 267 263 262 256 254 256 257 256 251
342 348 348 350 347 349 348 346 345 342 339 333 328 324 324 323 321 318 314 309 305 303 299 295 292 290 290 289 287 283 280 277 276 273 271 269 268 265 262 259 256 254 253 252 250
331 331 337 342 342 342 341 340 342 341 337 334 329 325 325 324 322 320 316 313 308 306 305 303 301 301 300 297 294 288 285 281 278 275 273 269 266 264 265 261 256 254 252 252 248
329 325 329 333 337 337 337 338 339 337 335 333 330 327 324 321 318 315 312 311 310 311 313 314 312 309 307 304 299 294 290 286 282 277 274 271 269 267 264 262 258 254 251 249 247
332 334 333 331 332 334 335 336 336 333 332 331 329 327 324 320 317 316 318 317 319 320 317 316 318 315 312 308 303 297 292 288 284 281 278 273 269 269 268 263 259 255 251 248 246
331 332 330 331 331 333 332 334 334 331 331 330 327 324 321 320 319 321 321 322 322 323 322 321 319 316 316 311 304 296 291 285 283 281 278 275 274 273 267 263 260 256 253 249 245
327 332 334 330 329 328 330 333 331 328 328 327 325 323 321 323 324 325 327 328 325 323 324 326 324 320 316 310 305 300 296 292 287 283 279 276 273 270 268 265 261 257 252 248 244
323 327 333 329 326 327 330 331 328 326 326 327 325 324 322 325 326 329 327 326 324 326 327 326 325 320 314 310 307 303 299 295 291 290 287 286 279 278 273 270 266 263 259 253 246
320 323 327 331 326 326 329 328 326 327 325 325 323 326 325 328 329 328 326 325 327 328 327 326 325 321 314 312 307 303 302 298 300 296 296 296 291 285 273 274 275 268 263 257 250
319 320 323 327 321 321 324 324 324 324 324 326 328 326 330 329 329 328 326 327 330 331 331 330 325 321 319 316 314 308 304 305 305 299 300 303 300 283 278 279 270 272 269 264 248
319 320 320 325 321 321 322 321 324 325 325 326 328 325 327 329 330 328 328 329 331 332 332 329 324 322 320 318 314 310 303 309 306 300 307 305 303 292 283 289 290 280 270 269 262
316 317 320 323 320 319 320 320 323 324 323 325 328 329 328 327 330 330 331 333 334 334 331 328 328 326 324 321 317 309 306 308 314 310 311 306 299 299 292 288 294 287 277 265 262
313 314 315 318 316 318 317 318 319 320 323 328 327 327 329 331 330 332 333 335 333 333 332 332 331 330 328 323 321 315 311 311 322 311 316 318 310 307 300 301 300 288 279 282 261
312 314 315 313 313 314 316 317 316 318 323 325 328 329 330 329 331 333 335 335 334 334 337 337 337 335 332 326 326 323 314 309 325 316 314 340 329 332 323 317 310 308 262 285 233
315 315 313 311 312 313 315 312 315 317 322 326 328 329 329 330 330 334 335 337 336 338 339 340 341 339 338 328 332 331 327 328 329 321 352 345 346 343 338 347 357 16 315 266 192
312 312 309 308 311 314 312 311 314 316 320 324 326 328 327 328 330 335 336 337 336 338 340 344 345 344 345 343 336 334 328 326 358 357 3 2 356 355 4 357 22 34 68 59 147
309 307 308 308 311 312 307 308 314 317 320 322 326 328 325 327 330 337 340 341 342 344 346 348 349 348 350 349 345 342 351 356 357 2 350 0 2 7 17 41 16 24 14 27 32
305 303 303 306 310 305 303 307 313 316 320 323 325 324 322 325 332 338 342 342 344 346 350 352 354 350 351 346 346 348 338 343 354 347 10 0 11 31 32 20 21 359 22 4 46
305 303 303 306 304 298 300 308 314 315 318 321 322 322 321 325 331 338 343 346 347 349 352 354 353 353 345 350 346 352 346 348 355 2 7 6 349 18 8 18 17 23 19 26 36
306 305 302 301 298 298 302 306 310 314 317 319 319 319 319 324 329 336 343 347 349 351 352 355 353 350 346 340 342 347 333 344 352 358 358 12 359 350 12 15 12 25 33 47 37
308 309 303 294 292 294 299 304 308 311 314 314 316 317 318 322 327 331 340 345 351 351 353 354 352 348 343 335 338 341 343 341 342 358 342 349 355 3 15 20 22 28 27 59 29
308 305 302 295 290 294 297 301 306 308 310 311 314 315 317 321 324 329 335 343 351 351 353 353 352 347 345 335 329 334 342 337 340 340 353 339 321 357 12 17 28 24 32 18 43
301 296 283 284 285 288 295 300 305 307 307 307 312 315 316 319 321 326 331 340 348 351 352 353 349 340 346 337 328 328 335 331 324 328 332 344 322 358 3 14 17 24 21 36 65
297 289 283 286 288 294 296 299 301 302 304 305 309 311 313 315 319 323 327 337 345 349 351 351 351 341 335 335 321 318 322 332 320 313 320 320 335 2 356 12 15 21 13 30 92
287 280 282 283 288 290 293 297 297 298 301 304 307 309 311 313 316 321 325 332 340 345 348 348 350 345 331 332 330 305 306 323 313 309 308 306 296 311 322 337 30 18 40 25 56
271 273 277 283 287 291 293 295 292 291 298 300 303 306 308 308 313 318 323 331 336 340 346 347 348 346 339 331 327 319 291 301 315 294 295 304 294 290 285 298 305 322 5 13 39